CW4498 Weather Reports


time (UTC)temp
C
wind
direction
speed
KPH
gust
KPH
rain 1hr
cm
rain 24hr
cm
rain mn
cm
humidity
%
barometer
mb
20260506091522 -2 31 1.6 4.8 0.00 0.61 0.00 91 1028.4
20260506090019 -2 28 0.0 4.8 0.00 0.61 0.00 91 1028.3
20260506084516 -2 55 1.6 9.7 0.00 0.61 0.00 91 1028.3
20260506083015 -2 315 1.6 8.0 0.00 0.61 0.00 91 1028.3
20260506081513 -2 303 0.0 4.8 0.00 0.61 0.00 92 1028.0
20260506073009 -2 46 0.0 4.8 0.00 0.61 0.00 92 1027.8
20260506071507 -2 39 0.0 6.4 0.00 0.61 0.00 92 1027.7
20260506061503 -2 105 0.0 6.4 0.00 0.61 0.61 93 1027.3
20260506044555 -2 42 0.0 3.2 0.00 0.61 0.61 94 1026.7
20260506043054 -2 44 0.0 4.8 0.00 0.61 0.61 94 1026.0
20260506041556 -1 317 0.0 3.2 0.00 0.61 0.61 94 1026.2
20260506040100 -1 313 0.0 1.6 0.00 0.61 0.61 94 1025.8
20260506034604 -1 51 0.0 4.8 0.00 0.61 0.61 94 1025.6
20260506033048 -1 66 0.0 6.4 0.00 0.61 0.61 94 1025.4
20260506031557 -1 314 0.0 3.2 0.00 0.61 0.61 94 1025.2
20260506030044 -1 314 0.0 1.6 0.00 0.61 0.61 94 1024.5
20260506024543 -1 313 0.0 1.6 0.00 0.61 0.61 94 1024.2
20260506023042 -1 314 0.0 3.2 0.00 0.61 0.61 94 1023.9
20260506021539 -1 313 0.0 3.2 0.00 0.61 0.61 94 1023.5
20260506020039 -1 313 0.0 3.2 0.00 0.61 0.61 94 1023.4
20260506014538 0 313 0.0 1.6 0.00 0.64 0.61 94 1023.0
20260506013036 0 313 0.0 4.8 0.00 0.64 0.61 94 1022.7
20260506011537 0 131 0.0 0.0 0.00 0.64 0.61 94 1022.5
20260506010041 0 130 0.0 1.6 0.00 0.64 0.61 94 1022.4
20260506004536 0 131 0.0 3.2 0.00 0.64 0.61 94 1022.2
20260506003037 0 113 0.0 3.2 0.00 0.64 0.61 94 1022.3
20260506001531 0 120 0.0 4.8 0.00 0.64 0.61 94 1022.1
20260506000032 0 107 1.6 8.0 0.00 0.64 0.61 94 1021.6
20260505234530 0 128 4.8 9.7 0.03 0.64 0.61 94 1021.0
20260505233030 0 128 4.8 12.9 0.05 0.64 0.61 94 1020.7
20260505231532 0 115 1.6 11.3 0.05 0.64 0.61 94 1020.5
20260505230031 0 59 4.8 14.5 0.08 0.64 0.61 94 1019.8
20260505224524 0 128 3.2 12.9 0.10 0.61 0.58 94 1019.7
20260505223023 0 119 3.2 11.3 0.08 0.58 0.56 94 1019.3
20260505221521 0 131 4.8 16.1 0.10 0.58 0.56 94 1019.3
20260505220019 0 78 1.6 11.3 0.08 0.53 0.51 94 1019.4
20260505214518 0 105 3.2 12.9 0.08 0.51 0.48 94 1019.6
20260505213017 0 119 3.2 11.3 0.10 0.51 0.48 94 1019.5
20260505211516 0 116 6.4 14.5 0.10 0.48 0.46 94 1019.5
20260505210023 0 96 3.2 12.9 0.10 0.46 0.43 93 1019.6
20260505204515 0 121 0.0 11.3 0.10 0.43 0.41 93 1019.7
20260505203013 0 128 4.8 9.7 0.13 0.41 0.38 93 1019.5
20260505201510 0 116 1.6 8.0 0.15 0.38 0.36 93 1019.3
20260505200017 1 124 3.2 12.9 0.18 0.36 0.33 93 1019.5
20260505194509 1 119 8.0 14.5 0.15 0.33 0.30 93 1019.5
20260505193006 1 119 4.8 11.3 0.15 0.28 0.25 93 1019.6
20260505191506 1 115 1.6 11.3 0.13 0.23 0.20 92 1019.4
20260505190004 1 101 3.2 9.7 0.10 0.18 0.15 92 1019.3
20260505184503 1 107 4.8 12.9 0.10 0.18 0.15 91 1019.2
20260505183001 1 149 0.0 1.6 0.05 0.13 0.10 91 1019.3
20260505181601 1 149 0.0 0.0 0.05 0.10 0.08 91 1019.4
20260505180100 1 149 0.0 1.6 0.03 0.08 0.05 91 1019.3
20260505174606 1 35 0.0 3.2 0.03 0.08 0.05 91 1019.3
20260505173100 1 311 0.0 4.8 0.03 0.08 0.05 91 1019.3
20260505171604 0 42 0.0 3.2 0.00 0.05 0.03 90 1019.5
20260505170057 0 340 0.0 8.0 0.03 0.05 0.03 90 1019.4
20260505164616 0 23 0.0 4.8 0.03 0.05 0.03 89 1019.3
20260505163102 1 36 0.0 4.8 0.03 0.05 0.03 89 1019.1
20260505161600 1 326 0.0 3.2 0.03 0.05 0.03 90 1019.1
20260505153044 1 57 0.0 4.8 0.00 0.03 0.00 88 1018.9
20260505151543 1 126 0.0 3.2 0.00 0.03 0.00 88 1018.9
20260505124524 3 119 0.0 11.3 0.00 0.03 0.00 82 1016.8
20260505123021 4 90 1.6 8.0 0.00 0.03 0.00 81 1016.5
20260505121520 4 128 1.6 9.7 0.00 0.03 0.00 79 1016.0
20260505120019 4 117 0.0 3.2 0.00 0.03 0.00 78 1015.8
20260505114517 4 108 1.6 8.0 0.00 0.03 0.00 78 1015.8
20260505113016 5 103 0.0 3.2 0.00 0.03 0.00 79 1015.6
20260505111522 5 109 0.0 3.2 0.00 0.03 0.00 80 1015.4
20260505101509 5 141 0.0 3.2 0.00 0.03 0.00 87 1015.1
20260505100014 4 138 0.0 4.8 0.00 0.03 0.00 86 1014.9
20260505094507 5 146 0.0 3.2 0.00 0.03 0.00 86 1014.8
20260505093003 5 325 0.0 0.0 0.00 0.03 0.00 85 1014.9